Manhattan, KS

1:26 PM CDT on March 24, 2017 (GMT -0500)
Manhattan Regional

Weather History for KMHK - June, 2013

Change the Weather History Date:

Wednesday, June 19, 2013

  Actual Average Record
Temperature  
Mean Temperature 76 °F 75 °F  
Max Temperature 90 °F 87 °F 98 °F (1998)
Min Temperature 62 °F 63 °F 52 °F (1998)
Degree Days  
Heating Degree Days 0 0  
Month to date heating degree days 9 8  
Since 1 June heating degree days 9 8  
Since 1 July heating degree days 5184 5312  
Cooling Degree Days 11 10  
Month to date cooling degree days 150 145  
Year to date cooling degree days 286 245  
Since 1 June cooling degree days 150 145  
Growing Degree Days 25 (Base 50)    
Moisture  
Dew Point 63 °F    
Average Humidity 66    
Maximum Humidity 93    
Minimum Humidity 39    
Precipitation  
Precipitation 0.00 in 0.15 in 2.10 in (2001)
Month to date precipitation 1.17 3.43  
Year to date precipitation 10.78 14.63  
Sea Level Pressure  
Sea Level Pressure 29.95 in    
Wind  
Wind Speed 7 mph (SSE)    
Max Wind Speed 21 mph    
Max Gust Speed 26 mph    
Visibility 10 miles    
Events      
T = Trace of Precipitation, MM = Missing Value Source: NWS Daily Summary

Daily Weather History Graph

Daily Weather History Graph

Search for Another Location

Airport or City:

Trip Planner

Search our weather history database for the weather conditions in past years. The results will help you decide how hot, cold, wet, or windy it might be!

Date:

Astronomy

Jun. 19, 2013 Rise Set
Actual Time 6:00 AM CDT 8:55 PM CDT
Civil Twilight 5:28 AM CDT 9:28 PM CDT
Nautical Twilight 4:47 AM CDT 10:08 PM CDT
Astronomical Twilight 4:00 AM CDT 10:55 PM CDT
Moon 4:51 PM CDT (6/19) 2:44 AM CDT (6/19)
Length of Visible Light 15h 59m
Length of Day
14h 55m
Waxing Gibbous, 80% of the Moon is Illuminated
Jun 19
Waxing Gibbous
Jun 23
Full
Jun 29
Last Quarter
Jul 8
New
Jul 15
First Quarter

Hourly Weather History & Observations

Time (CDT) Temp. Heat Index Dew Point Humidity Pressure Visibility Wind Dir Wind Speed Gust Speed Precip Events Conditions
12:52 AM 68.0 °F - 64.0 °F 87% 29.97 in 10.0 mi Calm Calm - N/A   Clear
1:52 AM 66.0 °F - 63.0 °F 90% 29.98 in 10.0 mi Calm Calm - N/A   Scattered Clouds
2:52 AM 64.9 °F - 62.1 °F 90% 29.97 in 10.0 mi Calm Calm - N/A   Clear
3:52 AM 62.1 °F - 61.0 °F 96% 29.96 in 10.0 mi Calm Calm - N/A   Clear
4:52 AM 64.0 °F - 62.1 °F 93% 29.96 in 10.0 mi Calm Calm - N/A   Mostly Cloudy
5:52 AM 66.0 °F - 62.1 °F 87% 29.97 in 10.0 mi Calm Calm - N/A   Overcast
6:52 AM 66.0 °F - 63.0 °F 90% 29.98 in 10.0 mi Calm Calm - N/A   Clear
7:52 AM 68.0 °F - 63.0 °F 84% 29.99 in 10.0 mi East 3.5 mph - N/A   Clear
8:52 AM 71.1 °F - 64.0 °F 78% 30.00 in 10.0 mi ESE 5.8 mph - N/A   Scattered Clouds
9:52 AM 75.0 °F - 64.0 °F 69% 29.99 in 10.0 mi Calm Calm - N/A   Partly Cloudy
10:52 AM 81.0 °F 82.7 °F 64.9 °F 58% 29.97 in 10.0 mi SSE 6.9 mph - N/A   Clear
11:52 AM 84.0 °F 85.8 °F 64.9 °F 53% 29.96 in 10.0 mi South 10.4 mph - N/A   Clear
12:52 PM 87.1 °F 87.8 °F 63.0 °F 44% 29.95 in 10.0 mi South 13.8 mph - N/A   Clear
1:52 PM 88.0 °F 89.3 °F 64.0 °F 45% 29.94 in 10.0 mi South 18.4 mph 25.3 mph N/A   Clear
2:52 PM 88.0 °F 89.3 °F 64.0 °F 45% 29.93 in 10.0 mi South 15.0 mph 23.0 mph N/A   Partly Cloudy
3:52 PM 87.1 °F 87.5 °F 62.1 °F 43% 29.92 in 10.0 mi South 13.8 mph 24.2 mph N/A   Partly Cloudy
4:52 PM 88.0 °F 87.1 °F 59.0 °F 37% 29.91 in 10.0 mi South 17.3 mph 23.0 mph N/A   Clear
5:52 PM 87.1 °F 86.5 °F 59.0 °F 39% 29.90 in 10.0 mi SSE 17.3 mph 24.2 mph N/A   Clear
6:52 PM 84.9 °F 85.0 °F 61.0 °F 44% 29.89 in 10.0 mi South 13.8 mph - N/A   Clear
7:52 PM 82.9 °F 83.7 °F 62.1 °F 49% 29.89 in 10.0 mi South 8.1 mph 19.6 mph N/A   Clear
8:52 PM 79.0 °F - 61.0 °F 54% 29.90 in 10.0 mi South 9.2 mph - N/A   Clear
9:52 PM 77.0 °F - 62.1 °F 60% 29.91 in 10.0 mi South 6.9 mph - N/A   Clear
10:52 PM 73.9 °F - 63.0 °F 68% 29.93 in 10.0 mi South 5.8 mph - N/A   Clear
11:52 PM 73.0 °F - 64.0 °F 73% 29.93 in 10.0 mi South 5.8 mph - N/A   Clear